{"data":{"norad_id":52267,"epoch":"2026-09-20T04:00:03.000096Z","epoch_age_seconds":88321,"freshness":"FRESH","line1":"1 52267U 22041G   26263.16670139  .00003354  00000+0  11034-3 0  9999","line2":"2 52267  53.1590 301.5850 0001113  79.6190 122.3516 15.34402391  5914","mean_motion":15.34402391,"eccentricity":0.0001113,"inclination_deg":53.159,"raan_deg":301.585,"arg_perigee_deg":79.619,"mean_anomaly_deg":122.3516,"bstar":0.00011034,"rev_number":591,"period_min":93.847611841997,"perigee_km":461.93474893268,"apogee_km":463.45751838823,"semimajor_km":6840.8331336605,"source":"CELESTRAK","updated_at":"2026-09-20T09:00:40.011940Z"}}